• Processing (Info)

  • MPEC 2023-F71 : 2023 FV1

    The following Minor Planet Electronic Circular may be linked-to from your own Web pages, but must not otherwise be redistributed electronically.

    A form allowing access to any MPEC is at the bottom of this page.


    Read MPEC 2023-F70 Read MPEC 2023-F72


    M.P.E.C. 2023-F71                                Issued 2023 March 20, 11:13 UT
    
         The Minor Planet Electronic Circulars contain information on unusual
             minor planets, routine data on comets and natural satellites,
             and occasional editorial announcements.  They are published
        on behalf of Division F of the International Astronomical Union by the
              Minor Planet Center, Smithsonian Astrophysical Observatory,
                              Cambridge, MA 02138, U.S.A.
    			  
                 Prepared using the Tamkin Foundation Computer Network
    
                                  MPC@CFA.HARVARD.EDU
                URL https://www.minorplanetcenter.net/    ISSN 1523-6714
    
                                    2023 FV1                                 
    
    
    Observations:
         K23F01V* C2023 03 18.39066612 43 18.980-00 57 27.22         21.56GVEF071V00
         K23F01V  C2023 03 18.39564012 43 28.837-00 58 35.15         21.41GVEF071V00
         K23F01V  C2023 03 18.40060212 43 38.554-00 59 42.36         20.89GVEF071V00
         K23F01V  C2023 03 18.40556712 43 48.230-01 00 49.43         21.36GVEF071V00
         K23F01V mC2023 03 18.48545112 46 29.906-01 19 17.11         20.58GVEF071V00
         K23F01V mC2023 03 18.48577212 46 30.565-01 19 21.94         20.35GVEF071V00
         K23F01V mC2023 03 18.48609212 46 31.228-01 19 26.36         20.54GVEF071V00
         K23F01V 1C2023 03 19.08357 13 12 44.24 -04 09 52.8          20.6 VXEF071033
         K23F01V 1C2023 03 19.08409 13 12 45.77 -04 10 02.4          20.2 VXEF071033
         K23F01V 1C2023 03 19.08460 13 12 47.31 -04 10 12.9          20.6 VXEF071033
         K23F01V 1C2023 03 19.08511 13 12 48.83 -04 10 23.0          20.5 VXEF071033
         K23F01V 1C2023 03 19.08563 13 12 50.42 -04 10 33.2          20.1 VXEF071033
         K23F01V KC2023 03 20.35478214 56 28.13 -14 12 17.7          19.9 GVEF071H21
         K23F01V KC2023 03 20.35584414 56 35.47 -14 12 55.9          20.6 GVEF071H21
         K23F01V KC2023 03 20.35690514 56 42.84 -14 13 34.1          20.2 GVEF071H21
         K23F01V KC2023 03 20.35796614 56 50.20 -14 14 12.0                VEF071H21
         K23F01V KC2023 03 20.36009114 57 04.99 -14 15 28.0          19.9 GVEF071H21
         K23F01V mC2023 03 20.43581815 06 17.708-14 59 50.78         19.55GVEF071V00
         K23F01V mC2023 03 20.43607915 06 19.620-15 00 01.04         19.57GVEF071V00
         K23F01V mC2023 03 20.43634115 06 21.492-15 00 10.04         19.76GVEF071V00
         K23F01V mC2023 03 20.43660215 06 23.396-15 00 19.08         19.55GVEF071V00
    
    Observer details:
    033 Karl Schwarzschild Observatory, Tautenburg.  Observers S. Melnikov, C.
        Hoegner, F. Ludwig, B. Stecklum.  Measurer B. Stecklum.  1.34-m f/3
        Schmidt + CCD.
    H21 Astronomical Research Observatory, Westfield.  Observer R. Holmes.
        Measurers T. Linder, R. Holmes, L. Horn.  0.76-m f/3.0 astrograph + CCD.
    V00 Kitt Peak-Bok.  Observer H. Groeller.  Measurers M. J. Brucker, E. J.
        Christensen, C. E. Woodward, D. Fay, J. B. Fazekas, D. C. Fuls, A. R.
        Gibbs, A. D. Grauer, H. Groeller, J. K. Hogan, R. A. Kowalski, S. M.
        Larson, G. J. Leonard, R. S. McMillan, D. Rankin, R. L. Seaman, A.
        Serrano, F. C. Shelly, K. W. Wierzchos.  2.25-m reflector + 4x4K mosaic
        CCD.
    
    Orbital elements:
    2023 FV1                                                 Earth MOID = 0.0001 AU
    Epoch 2023 Feb. 25.0 TT = JDT 2460000.5                 Veres                   
    M 340.15593              (2000.0)            P               Q                  
    n   0.32400761     Peri.  231.65734     -0.60153077     +0.79884946             
    a   2.0994196      Node     1.36337     -0.72597073     -0.54638253             
    e   0.5929541      Incl.    1.24746     -0.33335753     -0.25160617             
    P   3.04           H   28.04          G   0.15           U   8                  
    Residuals in seconds of arc
    230318 V00 (2.6-  0.9+)   230319 033  0.0   0.5-    230320 H21  0.2+  0.8-
    230318 V00  0.0   0.0     230319 033  0.6-  0.3+    230320 H21  0.0   0.7-
    230318 V00  0.4+  0.1-    230319 033  0.7-  0.0     230320 H21  0.2+  0.5-
    230318 V00  0.5-  0.1+    230319 033  1.0-  0.1+    230320 V00  0.1-  0.2+
    230318 V00  0.2+  0.1+    230319 033  0.7-  0.3+    230320 V00 (0.3+  0.7-)
    230318 V00  0.0   0.1-    230320 H21  0.5+  0.5-    230320 V00  0.1-  0.3-
    230318 V00  0.0   0.0     230320 H21  0.1+  0.7-    230320 V00  0.1+  0.1+
    
    Ephemeris:
    2023 FV1                 a,e,i = 2.10, 0.59, 1                   q = 0.8546
    Date    TT    R. A. (2000) Decl.     Delta      r    Elong.  Phase     V
    2023 02 18    11 01 03.4 +09 25 08   0.2677  1.2493   165.6    11.3    26.4
    ...
    2023 03 05    11 11 46.9 +08 37 53   0.1313  1.1227   176.4     3.2    24.2
    ...
    2023 03 13    11 31 50.5 +06 41 45   0.06569 1.0592   176.5     3.3    22.6
    ...
    2023 03 19    13 08 33.5 -03 36 33   0.02056 1.0147   160.3    19.3    20.6
    2023 03 20    14 18 20.1 -10 40 50   0.01501 1.0076   142.8    36.7    20.4
    2023 03 21    16 25 19.0 -20 04 43   0.01243 1.0006   111.9    67.4    20.9
    ...
    2023 03 27    21 54 30.5 -15 35 31   0.04876 0.9610    40.4   137.7    28.0
    ...
    2023 04 04    22 29 38.9 -12 37 18   0.1122  0.9157    39.3   136.3    29.5
    ...
    2023 04 19    22 53 26.4 -10 09 23   0.2376  0.8621    47.7   120.6    29.5
    
    M. P. C. Staff               (C) Copyright 2023 MPC           M.P.E.C. 2023-F71
    


    Read MPEC 2023-F70 Read MPEC 2023-F72


    MPEC number:

    Enter an MPEC number in one of the following forms:

    • 1997-B01 (the full form)
    • J97B01 (the packed version of the full form)
    • B01 (the abbreviated form)